Home   Weather   Luanda   Past weeks

Flag for Angola Past Weather in Luanda, Angola — Yesterday and Last 2 Weeks

88 °F

Scattered clouds.

Feels Like: 91 °F
Forecast: 76 / 83 °F
Wind: 7 mph from Southeast

Location: Luanda Airport

Current Time: Oct 28, 2016 at 11:31:13 AM

Latest Report: Oct 28, 2016 at 11:00 AM

Visibility: N/A

Pressure: 29.89 "Hg

Humidity: 52%

Dew Point: 68 °F

Location of LuandaLocation

Past Weather in Luanda — Graph


Luanda Temperature Yesterday

Maximum temperature yesterday: 81 °F (at 10:00 AM)
Minimum temperature yesterday: 75 °F (at 1:00 AM)
Average temperature yesterday: 78 °F

High & Low Weather Summary for the Past Weeks

High86 °F (Oct 17, 2:00 PM)94% (Oct 14, 5:00 AM)29.98 "Hg (Oct 14, 5:00 AM)
Low73 °F (Oct 14, 5:00 AM)47% (Oct 15, 12:00 AM)29.68 "Hg (Oct 25, 5:00 PM)
Average78 °F78%29.86 "Hg
* Reported Oct 13 10:00 AM — Oct 28 10:00 AM, Luanda, Weather by CustomWeather, © 2016

Note: Actual official high and low records may vary slightly from our data, if they occured in-between our weather recording intervals... More about our weather records


Luanda Weather History for the Previous 24 Hours

Scroll right to see more
Time TempWeatherWind HumidityBarometerVisibility
10:00 AM
Fri, Oct 28
86 °FScattered clouds.3 mph59%29.92 "HgN/A
9:00 AM82 °FScattered clouds.9 mph70%29.92 "HgN/A
8:00 AM77 °FBroken clouds.7 mph83%29.92 "Hg5 mi
7:00 AM75 °FPartly sunny.7 mph89%29.89 "Hg4 mi
6:00 AM75 °FPartly sunny.6 mph89%29.86 "Hg4 mi
4:00 AM75 °FPassing clouds.6 mph89%29.83 "Hg5 mi
3:00 AM75 °FPartly cloudy.5 mph89%29.83 "Hg5 mi
2:00 AM77 °FPassing clouds.7 mph83%29.86 "Hg6 mi
1:00 AM77 °FPassing clouds.5 mph89%29.86 "Hg6 mi
12:00 AM77 °FPassing clouds.5 mph83%29.89 "Hg6 mi
11:00 PM
Thu, Oct 27
77 °FPassing clouds.9 mph89%29.86 "Hg6 mi
10:00 PM77 °FPassing clouds.3 mph83%29.89 "HgN/A
9:00 PM77 °FPassing clouds.3 mph83%29.89 "HgN/A
8:00 PM77 °FPassing clouds.3 mph83%29.86 "HgN/A
7:00 PM77 °FPassing clouds.5 mph83%29.83 "HgN/A
6:00 PM79 °FScattered clouds.5 mph79%29.83 "HgN/A
5:00 PM81 °FPassing clouds.8 mph74%29.77 "HgN/A
4:00 PM79 °FScattered clouds.9 mph79%29.74 "HgN/A
3:00 PM79 °FBroken clouds.9 mph79%29.77 "HgN/A
2:00 PM81 °FBroken clouds.7 mph74%29.80 "HgN/A
1:00 PM79 °FBroken clouds.5 mph79%29.83 "HgN/A
12:00 PM79 °FBroken clouds.6 mph79%29.86 "HgN/A
11:00 AM79 °FBroken clouds.7 mph79%29.86 "HgN/A
Weather by CustomWeather, © 2016

See weather overviewHow to use our weather pages